Flag for Germany Weather past 2 weeks in Neuwied, Rhineland-Palatinate, Germany

Now
45 °F

Passing clouds.


Feels Like: 40 °F
Forecast: 31 / 66 °F
Wind: 8 mph from Northeast

Location: Buechel


UV Index: 3 (Moderate)

Visibility: N/A


Pressure: 30.39 "Hg

Humidity: 61%

Dew point: 32 °F

Location of NeuwiedLocation

Historic Weather in Neuwied

°F

Neuwied temperature yesterday

Maximum temperature yesterday: 43 °F (at 3:20 PM)
Minimum temperature yesterday: 36 °F (at 3:20 AM)
Average temperature yesterday: 40 °F

Past Weeks' High & Low Weather Summary

 TemperatureHumidityPressure
High68 °F (Apr 3, 2:20 PM)100% (Apr 6, 4:20 AM)30.39 "Hg (Apr 6, 4:20 AM)
Low34 °F (Apr 16, 3:20 AM)32% (Apr 1, 2:20 PM)29.65 "Hg (Apr 3, 3:20 AM)
Average52 °F67%30.01 "Hg
* Reported Apr 1 11:20 AM — Apr 16 11:20 AM, Neuwied, Weather by CustomWeather, © 2014

Note: Actual official high and low records may vary slightly from our data, if they occured in-between our weather recording intervals... More about our weather records

Advertising

Historic Weather Conditions — Data for Previous 24 hours

 ConditionsComfort  
Time TempWeatherWind HumidityBarometerVisibility
11:20 AM
Apr 16
45 °FPassing clouds.8 mph61%30.39 "HgN/A
10:20 AM41 °FPassing clouds.9 mph70%30.39 "HgN/A
9:20 AM39 °FScattered clouds.8 mph75%30.39 "HgN/A
8:20 AM37 °FPassing clouds.7 mph75%30.36 "HgN/A
7:20 AM34 °FPassing clouds.5 mph81%30.36 "HgN/A
6:20 AM34 °FPassing clouds.5 mph81%30.33 "HgN/A
5:20 AM34 °FChilly.6 mph81%30.33 "HgN/A
4:20 AM34 °FChilly.6 mph81%30.33 "HgN/A
3:20 AM34 °FChilly.8 mph81%30.33 "HgN/A
2:20 AM37 °FChilly.8 mph75%30.33 "HgN/A
12:20 AM37 °FChilly.5 mph75%30.30 "HgN/A
11:20 PM
Apr 15
39 °FChilly.6 mph70%30.30 "HgN/A
10:20 PM39 °FChilly.6 mph70%30.30 "HgN/A
9:45 PM41 °FPassing clouds.5 mph66%30.30 "HgN/A
9:20 PM41 °FPartly sunny.5 mph66%30.27 "HgN/A
8:20 PM43 °FPartly sunny.6 mph61%30.27 "HgN/A
7:20 PM43 °FBroken clouds.9 mph57%30.27 "HgN/A
6:20 PM43 °FBroken clouds.10 mph61%30.27 "HgN/A
5:20 PM43 °FBroken clouds.10 mph61%30.27 "HgN/A
4:20 PM43 °FBroken clouds.7 mph57%30.27 "HgN/A
3:20 PM43 °FBroken clouds.10 mph53%30.27 "HgN/A
2:20 PM41 °FPartly sunny.10 mph61%30.27 "HgN/A
1:20 PM41 °FPartly sunny.9 mph61%30.27 "HgN/A
12:20 PM41 °FPartly sunny.8 mph66%30.27 "HgN/A
Weather by CustomWeather, © 2014

See weather overview